Retour au catalogue

STARLINK-32600

ActifCommunicationsVLEO
NORAD 62178·PAYLOAD·🇺🇸 United States

Lancé Nov 30, 2024 depuis Vandenberg Space Force Base

Loading…

Prochains Passages (prochaines 24 heures)

TLE

FraisSource: CelesTrak SupGP

Époque: Sep 14, 2026, 22:42 UTC

1 62178C 24225R   26257.94631944 -.00017983  00000+0 -62570-3 0  2570
2 62178  70.0012  35.5947 0003310 273.9485 161.3741 15.29580398    18

Suivez STARLINK-32600 en temps réel avec AllMySat

Download on the App Store